STARLINK-32539, 62022

Orbit data source: Space-Track

STARLINK-32539, 62022 is a payload satellite owned by SpaceX/Seattle (US) in LEO that was launched on Mon, 18 Nov 2024 UTC via an FALCON 9 launch vehicle from the Air Force Western Test Range (AFWTR). Payloads include a variety of satellites, spacecraft, and rockets equipped with specific instruments for various scientific and technological missions. These include communications satellites like Starlink; space stations such as the ISS; scientific satellites like the Hubble; Earth observation satellites from companies like Planet Labs, Umbra, and HawkEye 360; GPS; miniature CubeSats for education and research; and military/defense satellites.

Loading next visibility...
STARLINK-32539 details
Identifier
62022, 2024-213Q
Orbit
LEO
Last TLE update6 hours ago
Origin
Flag of USSpaceX/Seattle (US)
ManufacturerSpaceX/Seattle
MissionOperational spacecraft
Bus & MotorSTARLINK V2M, Unknown motor
Mass730 kg wet, ~700 kg dry
Launch date (UTC)
2024-11-18 (1 month ago)
Launch vehicle
FALCON 9
Launch site
Air Force Western Test Range (AFWTR)
Object type
Payload
Rocket body
Debris
Shape & HBRUnknown
Radar Cross SectionLarge (>1 m²)

Expand to show TLE details & history

TLE from 6 hours ago
0 STARLINK-32539
1 62022U 24213Q   24361.16668981 -.01251388  00000-0 -10466-1 0  9993
2 62022  53.1574  44.3133 0000773  91.4866 230.7569 15.71951688  6849
Epoch: 2024-12-26T04:00Z
Definitive object data (Epoch: 2024-12-26T04:00:01.999Z)
Latitude-29.55598°
Longitude-135.83703°
Altitude362.621 km
Speed7.691 km/s
True Right ascension01h 17m 17s
True Declination-29° 24' 00"
Sunlit
Object was in daylight at TLE epoch
Visualization TLE readout
Latitude-3.21643°
Longitude-114.53212°
Altitude356.81 km
Speed7.696 km/s
Apparent Right ascension00h 37m 35s
Apparent Declination-25° 48' 56"
Sunlit
Object is in full shadow
Visualization observer readout
Local Sidereal Time09:36:05
Azimuth276.393° WNW
Elevation-49.859°
Doppler factor1
Orbital elements
Apogee altitude354.101 km
Perigee altitude353.061 km
Semi-major axis6,731.718 km
Eccentricity0.0000773
Inclination53.1574°
RAAN44.3133°
Arg. of periapsis91.4866°
True anomaly230.75004°
Mean anomaly230.7569°
Eccentric anomaly230.75347°
Mean motion3.92965 °/min
BSTAR-0.010466
Orbital period91.61 mins
Loading maneuver chart data...
Loading historical data...
Loading historical data...
Loading historical data...
Loading historical data...
Loading historical data...
Loading historical data...
Loading historical data...

STARLINK-32539 Visibility forecast

Observer location: undefined°, undefined

Span
Click to sort rows by Start time (UTC) header in descending order
Start Az.
Max El. time (UTC)
Max El. Az.
Max El.
End time (UTC)
End Az.
5 mins2024-12-26 12:15:56.648Z327.023° NNW2024-12-26 12:17:56.648Z10.896° NNE28.75°2024-12-26 12:20:56.648Z102.327° ESE
4 mins2024-12-27 06:20:56.648Z270.821° WNW2024-12-27 06:22:56.648Z349.381° N28.582°2024-12-27 06:24:56.648Z32.76° NE
|